Tracking 23762 objects as of 21-Oct-2021
HD Live streaming from Space Station
objects crossing your sky now

RAX-2

Track RAX-2 now!
10-day predictions
RAX-2 is classified as:


NORAD ID: 37853
Int'l Code: 2011-061D
Perigee: 443.0 km
Apogee: 668.8 km
Inclination: 101.7 °
Period: 95.6 minutes
Semi major axis: 6926 km
RCS: 0.0758 m2 (small)
Launch date: October 28, 2011
Source: United States (US)
Launch site: AIR FORCE WESTERN TEST RANGE (AFWTR)

Uplink (MHz):
Downlink (MHz): 437.345
Beacon (MHz):
Mode: 9600bps GMSK
Call sign:
Status: Inactive

aabbcc
Your satellite tracking list
Your tracking list is empty




NASA's NSSDC Master Catalog

Two Line Element Set (TLE):
1 37853U 11061D   21293.50483628  .00003267  00000-0  17420-3 0  9993
2 37853 101.7179 268.7994 0162982  80.3508 281.6074 15.05903802544544
Source of the keplerian elements: AFSPC